{"data":{"norad_id":67336,"epoch":"2026-05-25T01:41:41.822016Z","epoch_age_seconds":62835,"freshness":"FRESH","line1":"1 67336U 26003C   26145.07062294  .00005898  00000+0  22366-3 0  9995","line2":"2 67336  43.0010 155.8603 0001642 301.8068  58.2623 15.27581887 20507","mean_motion":15.27581887,"eccentricity":0.0001642,"inclination_deg":43.001,"raan_deg":155.8603,"arg_perigee_deg":301.8068,"mean_anomaly_deg":58.2623,"bstar":0.00022366,"rev_number":2050,"period_min":94.266632267289,"perigee_km":481.91683985944,"apogee_km":484.17005151781,"semimajor_km":6861.1804456886,"source":"CELESTRAK","updated_at":"2026-05-25T13:38:21.521948Z"}}